Location: Eldred Sherwood Park Lake Dam
(42.9416°N, 93.5655°W)
Time: 00:33:49
(UTC+00:00)

Transit 4A - Pass Details

Date: 17 November 2024
Orbit: 862 x 980 km, 66.8° (Epoch: 06 December)

Event Time Altitude Azimuth Distance (km) Brightness Sun altitude
Rises 01:45:18 0° 334° (NNW) 3,658 11.4 -32.1°
Reaches altitude 10° 01:48:35 10° 351° (N) 2,722 10.4 -32.7°
Enters shadow 01:49:49 14° 360° (N) 2,439 10.1 -32.9°
